Middenmeer Aerodrome

EHMM · Nordholland, Niederlande

METAR-Geschichte EHMM · Middenmeer Aerodrome

Unten siehst du die METARs der letzten paar Tage. Wähle ein Jahr, um ältere METARs ab dem Jahr 2007 zu durchsuchen.

23. Februar 2024

Uhrzeit Code Wetter Temp. Sichtweite Wolkendecke Wind METAR/SPECI
10:55
M
5 °C 10 km+ 1.100 ft 180° 180° 19 kt METAR EHKD 230955Z AUTO 18019KT 150V210 9999 FEW009 BKN011 BKN014 FEW015CB 05/04 Q0985 GRN TEMPO 23022G35KT 4000 SHRA FEW008 SCT012 SCT015CB
10:37
M
5 °C 10 km+ 1.300 ft 180° 180° 17 kt METAR EHKD 230937Z AUTO 18017KT 9999 -DZ FEW010 OVC013 05/03 Q0985 GRN TEMPO 23022G35KT 4000 SHRA FEW008 SCT012 SCT015CB
10:25
M
4 °C 10 km+ 1.300 ft 190° 190° 18 kt METAR EHKD 230925Z AUTO 19018KT 9999 FEW008 SCT010 BKN013 04/03 Q0985 GRN TEMPO 23022G35KT 4000 SHRA FEW010 SCT015CB
10:29
M
4 °C 10 km+ 1.500 ft 190° 190° 18 kt METAR EHKD 230929Z AUTO 19018KT 9999 FEW010 OVC015 04/03 Q0985 WHT TEMPO 23022G35KT 4000 SHRA FEW010 SCT015CB
10:19
M
4 °C 8 km 1.200 ft 190° 190° 19 kt METAR EHKD 230919Z AUTO 19019KT 160V220 8000 -RA FEW008 SCT010 BKN012 04/03 Q0985 GRN TEMPO 23022G35KT 4000 SHRA FEW010 SCT015CB
10:10
M
4 °C 5 km 1.000 ft 200° 200° 20 kt METAR EHKD 230910Z AUTO 20020KT 170V230 5000 -SHRA FEW005 BKN010 BKN013 FEW015CB 04/03 Q0985 GRN TEMPO 23022G35KT 4000 SHRA FEW010 SCT015CB
10:06
M
5 °C 6 km 1.100 ft 200° 200° 19 kt METAR EHKD 230906Z AUTO 20019KT 6000 -SHUP FEW009 BKN011 OVC015 05/03 Q0985 GRN TEMPO 23022G35KT 4000 SHRA FEW010 SCT015CB
10:02
M
5 °C 5 km 1.500 ft 200° 200° 20 kt METAR EHKD 230902Z AUTO 20020KT 5000 -UP FEW010 BKN015 BKN018 05/03 Q0985 WHT TEMPO 23022G35KT 4000 SHRA FEW010 SCT015CB
09:55
I
5 °C 4,8 km 2.100 ft 200° 200° 23 - 33 kt METAR EHKD 230855Z AUTO 20023G33KT 4800 -RA FEW014 SCT017 BKN021 05/02 Q0985 REDZUP GRN TEMPO 23022G35KT 4000 SHRA FEW010 SCT015CB
09:44
M
5 °C 10 km+ 1.500 ft 190° 190° 19 kt METAR EHKD 230844Z AUTO 19019KT 9999 DZRA BKN015 OVC018 05/03 Q0985 WHT TEMPO 23022G35KT 4000 SHRA FEW010 SCT015CB
09:32
M
6 °C 10 km+ 2.000 ft 190° 190° 19 kt METAR EHKD 230832Z AUTO 19019KT 160V220 9999 -DZ FEW017 BKN020 OVC024 06/03 Q0985 WHT TEMPO 23022G35KT 4000 SHRA FEW010 SCT015CB
09:25
M
6 °C 10 km+ 1.600 ft 190° 190° 19 kt METAR EHKD 230825Z AUTO 19019KT 150V220 9999 -DZRA OVC016 06/03 Q0985 REDZ WHT TEMPO 23022G35KT 4000 SHRA FEW010 SCT015CB
08:55
M
6 °C 10 km+ 1.600 ft 190° 190° 19 kt METAR EHKD 230755Z AUTO 19019KT 9999 BKN016 OVC022 06/03 Q0985 WHT TEMPO 23022G35KT 4000 SHRA FEW010 SCT015CB
08:25
M
5 °C 10 km+ 2.000 ft 190° 190° 18 kt METAR EHKD 230725Z AUTO 19018KT 9999 FEW016 BKN020 05/03 Q0985 REDZ WHT TEMPO 23022G35KT 4000 SHRA FEW010 SCT015CB
08:18
M
5 °C 10 km+ 2.900 ft 200° 200° 19 kt METAR EHKD 230718Z AUTO 20019KT 9999 FEW016 SCT025 BKN029 05/03 Q0985 BLU TEMPO 23022G35KT 4000 SHRA FEW010 SCT018CB
08:12
M
6 °C 10 km+ 2.700 ft 200° 200° 20 kt METAR EHKD 230712Z AUTO 20020KT 9999 FEW015CB SCT024 BKN027 BKN031 06/03 Q0985 WHT TEMPO 23022G35KT 4000 SHRA FEW010 SCT018CB
08:06
M
6 °C 10 km+ 2.600 ft 210° 210° 19 kt METAR EHKD 230706Z AUTO 21019KT 180V240 9999 DZ FEW015CB BKN026 BKN031 06/03 Q0985 BLU TEMPO 23022G35KT 4000 SHRA FEW010 SCT018CB
07:55
M
6 °C 10 km+ 2.000 ft 210° 210° 19 - 29 kt METAR EHKD 230655Z AUTO 21019G29KT 170V250 9999 FEW014 FEW015CB SCT017 BKN020 06/03 Q0985 WHT TEMPO 23022G35KT 4000 SHRA FEW010 SCT018CB
07:44
M
6 °C 6 km 2.700 ft 220° 220° 21 kt METAR EHKD 230644Z AUTO 22021KT 190V250 6000 -SHRA FEW015CB SCT023 BKN027 06/03 Q0985 WHT TEMPO 23022G35KT 4000 SHRA FEW010 SCT018CB
07:39
M
6 °C 5 km 4.300 ft 210° 210° 22 kt METAR EHKD 230639Z AUTO 21022KT 190V250 5000 -UP FEW015CB SCT034 BKN043 06/03 Q0985 WHT TEMPO 23022G35KT 4000 SHRA FEW010 SCT018CB
07:25
M
6 °C 10 km+ 1.900 ft 210° 210° 21 kt METAR EHKD 230625Z AUTO 21021KT 170V230 9999 SCT016 BKN019 BKN026 06/03 Q0985 WHT TEMPO 23022G35KT 4000 SHRA FEW010 SCT018CB
07:15
M
6 °C 10 km+ 1.900 ft 210° 210° 21 kt METAR EHKD 230615Z AUTO 21021KT 170V240 9999 SCT015 BKN019 BKN023 06/03 Q0985 WHT TEMPO 23022G35KT 4000 SHRA FEW010 SCT018CB
07:11
M
6 °C 10 km+ 2.500 ft 210° 210° 19 - 30 kt METAR EHKD 230611Z AUTO 21019G30KT 170V250 9999 SCT015 SCT020 BKN025 06/03 Q0985 WHT TEMPO 23022G35KT 4000 SHRA FEW010 SCT018CB
06:55
V
6 °C 10 km+ - 220° 220° 18 kt METAR EHKD 230555Z AUTO 22018KT 190V250 9999 FEW061 06/02 Q0985 BLU TEMPO 23022G35KT 4000 SHRA FEW010 SCT018CB
06:36
M
7 °C 10 km+ 3.000 ft 220° 220° 18 kt METAR EHKD 230536Z AUTO 22018KT 9999 FEW018CB SCT026 BKN030 07/02 Q0985 BLU TEMPO 23022G35KT 4000 SHRA FEW010 SCT018CB
06:29
M
7 °C 10 km+ 2.400 ft 230° 230° 17 kt METAR EHKD 230529Z AUTO 23017KT 200V260 9999 FEW018CB BKN024 BKN028 BKN034 07/02 Q0985 WHT TEMPO 23022G35KT 4000 SHRA FEW010 SCT018CB
06:25
V
6 °C 10 km+ - 230° 230° 15 kt METAR EHKD 230525Z AUTO 23015KT 9999 SCT024 06/02 Q0985 WHT
05:55
V
6 °C 10 km+ - 230° 230° 18 kt METAR EHKD 230455Z AUTO 23018KT 200V260 9999 FEW022 SCT025 06/02 Q0985 BLU
05:41
V
6 °C 10 km+ - 230° 230° 17 kt METAR EHKD 230441Z AUTO 23017KT 190V260 9999 FEW022 SCT025 06/02 Q0985 BLU
05:34
V
6 °C 10 km+ - 230° 230° 19 kt METAR EHKD 230434Z AUTO 23019KT 200V260 9999 SCT022 SCT028 06/02 Q0985 WHT
05:25
V
6 °C 10 km+ - 230° 230° 19 kt METAR EHKD 230425Z AUTO 23019KT 200V260 9999 FEW021 06/02 Q0985 BLU
04:55
V
6 °C 10 km+ - 240° 240° 20 kt METAR EHKD 230355Z AUTO 24020KT 9999 FEW022 06/02 Q0985 BLU
04:25
V
6 °C 10 km+ - 240° 240° 22 - 32 kt METAR EHKD 230325Z AUTO 24022G32KT 210V270 9999 FEW022 06/02 Q0984 BLU
04:16
M
6 °C 10 km+ 2.700 ft 240° 240° 22 - 32 kt METAR EHKD 230316Z AUTO 24022G32KT 210V270 9999 FEW022 BKN027 BKN031 06/02 Q0984 BLU
04:12
M
6 °C 10 km+ 2.800 ft 240° 240° 21 kt METAR EHKD 230312Z AUTO 24021KT 210V270 9999 SCT024 BKN028 06/02 Q0984 WHT
04:00
V
6 °C 10 km+ - 240° 240° 22 - 33 kt METAR EHKD 230300Z AUTO 24022G33KT 210V270 9999 FEW023 SCT041 06/02 Q0984 BLU
03:55
V
6 °C 10 km+ 19.000 ft 250° 250° 22 - 33 kt METAR EHKD 230255Z AUTO 25022G33KT 210V270 9999 SCT023 SCT030 BKN190 06/02 Q0984 WHT
03:37
M
6 °C 10 km+ 2.800 ft 240° 240° 22 - 32 kt METAR EHKD 230237Z AUTO 24022G32KT 9999 SCT023 BKN028 BKN033 06/02 Q0984 WHT
03:32
M
6 °C 10 km+ 2.600 ft 250° 250° 22 kt METAR EHKD 230232Z AUTO 25022KT 9999 FEW022 BKN026 BKN030 06/02 Q0984 BLU
03:25
V
6 °C 10 km+ 3.500 ft 250° 250° 22 kt METAR EHKD 230225Z AUTO 25022KT 220V280 9999 SCT022 SCT030 BKN035 06/02 Q0984 WHT
03:14
V
6 °C 10 km+ 4.900 ft 250° 250° 24 kt METAR EHKD 230214Z AUTO 25024KT 220V280 9999 FEW023 SCT026 BKN049 06/02 Q0984 BLU
03:08
V
6 °C 10 km+ 15.000 ft 250° 250° 23 - 33 kt METAR EHKD 230208Z AUTO 25023G33KT 220V280 9999 SCT024 SCT037 OVC150 06/02 Q0984 WHT
02:55
V
6 °C 10 km+ 5.700 ft 250° 250° 25 kt METAR EHKD 230155Z AUTO 25025KT 9999 FEW025 SCT051 BKN057 06/02 Q0984 BLU
02:31
V
6 °C 10 km+ 9.400 ft 250° 250° 23 kt METAR EHKD 230131Z AUTO 25023KT 9999 FEW023 BKN094 OVC100 06/02 Q0983 BLU
02:25
V
7 °C 10 km+ 3.300 ft 250° 250° 25 kt METAR EHKD 230125Z AUTO 25025KT 220V280 9999 FEW022 SCT026 BKN033 07/02 Q0983 BLU
01:55
V
7 °C 10 km+ 4.300 ft 260° 260° 24 - 35 kt METAR EHKD 230055Z AUTO 26024G35KT 220V290 9999 FEW021 SCT026 BKN043 07/02 Q0983 BLU
01:43
V
7 °C 10 km+ 3.700 ft 260° 260° 25 kt METAR EHKD 230043Z AUTO 26025KT 230V290 9999 SCT022 SCT027 BKN037 07/03 Q0982 WHT
01:25
V
7 °C 10 km+ 9.500 ft 250° 250° 25 - 36 kt METAR EHKD 230025Z AUTO 25025G36KT 9999 FEW023 SCT030 BKN095 07/02 Q0982 BLU
01:19
M
7 °C 10 km+ 3.000 ft 250° 250° 25 - 36 kt METAR EHKD 230019Z AUTO 25025G36KT 9999 FEW023 SCT027 BKN030 07/02 Q0982 BLU
01:08
V
7 °C 10 km+ 3.200 ft 260° 260° 25 kt METAR EHKD 230008Z AUTO 26025KT 230V290 9999 SCT023 BKN032 BKN037 07/03 Q0982 WHT
01:03
M
7 °C 10 km+ 3.000 ft 260° 260° 26 kt METAR EHKD 230003Z AUTO 26026KT 9999 FEW016CB SCT027 BKN030 07/02 Q0981 BLU
00:55
V
7 °C 10 km+ 4.200 ft 260° 260° 29 kt METAR EHKD 222355Z AUTO 26029KT 230V290 9999 FEW016CB SCT027 BKN042 07/03 Q0981 BLU
00:38
M
6 °C 10 km+ 2.700 ft 280° 280° 19 kt METAR EHKD 222338Z AUTO 28019KT 230V330 9999 FEW015CB SCT023 BKN027 06/03 Q0981 WHT
00:31
M
5 °C 10 km+ 2.500 ft 290° 290° 18 - 31 kt METAR EHKD 222331Z AUTO 29018G31KT 230V320 9999 -SHRA FEW015CB SCT021 BKN025 05/03 Q0981 WHT
00:27
I
4 °C 4,6 km 2.100 ft 290° 290° 20 - 31 kt METAR EHKD 222327Z AUTO 29020G31KT 250V320 4600 -SHRA +DZ FEW015CB BKN021 OVC025 04/02 Q0981 GRN
00:25
M
5 °C 6 km 2.900 ft 280° 280° 21 - 33 kt METAR EHKD 222325Z AUTO 28021G33KT 250V320 6000 DZ FEW015CB SCT020 BKN029 05/02 Q0980 RETS WHT
00:14
V
6 °C 10 km+ 3.700 ft 270° 270° 26 - 38 kt METAR EHKD 222314Z AUTO 27026G38KT 9999 -TSRA FEW015CB SCT032 BKN037 06/02 Q0980 BLU
00:10
V
6 °C 10 km+ 4.100 ft 270° 270° 22 - 36 kt METAR EHKD 222310Z AUTO 27022G36KT 240V300 9999 TS FEW015CB SCT037 BKN041 06/03 Q0980 BLU
00:01
M
5 °C 10 km+ 3.000 ft 260° 260° 23 kt METAR EHKD 222301Z AUTO 26023KT 230V290 9999 -RA FEW014 BKN030 BKN039 05/02 Q0980 BLU

22. Februar 2024

Uhrzeit Code Wetter Temp. Sichtweite Wolkendecke Wind METAR/SPECI
23:55
V
6 °C 10 km+ 3.400 ft 270° 270° 21 kt METAR EHKD 222255Z AUTO 27021KT 230V300 9999 DZRA FEW019 BKN034 BKN039 06/03 Q0979 REDZ BLU
23:44
V
6 °C 10 km+ 3.300 ft 270° 270° 22 kt METAR EHKD 222244Z AUTO 27022KT 240V310 9999 FEW016 SCT027 BKN033 06/03 Q0979 BLU
23:39
M
5 °C 10 km+ 2.600 ft 280° 280° 23 kt METAR EHKD 222239Z AUTO 28023KT 240V320 9999 +DZ SCT016 BKN026 OVC033 05/03 Q0979 WHT
23:35
M
5 °C 10 km+ 2.500 ft 280° 280° 24 - 35 kt METAR EHKD 222235Z AUTO 28024G35KT 250V320 9999 -RADZ FEW016 BKN025 OVC028 05/03 Q0979 BLU
23:25
M
6 °C 6 km 1.600 ft 280° 280° 25 - 36 kt METAR EHKD 222225Z AUTO 28025G36KT 240V330 6000 -RA BKN016 OVC024 06/03 Q0978 WHT
23:10
M
5 °C 10 km+ 2.300 ft 280° 280° 27 - 37 kt METAR EHKD 222210Z AUTO 28027G37KT 230V320 9999 -RA FEW014 SCT019 OVC023 05/03 Q0978 WHT
22:59
M
5 °C 9 km 2.000 ft 280° 280° 24 - 42 kt METAR EHKD 222159Z AUTO 28024G42KT 240V330 9000 -SHRA FEW013 SCT016 BKN020 05/03 Q0977 WHT
22:55
M
5 °C 8 km 2.000 ft 280° 280° 25 - 42 kt METAR EHKD 222155Z AUTO 28025G42KT 250V330 8000 -RA SCT015CB BKN020 OVC024 05/03 Q0977 WHT
22:32
M
6 °C 7 km 2.100 ft 290° 290° 24 - 35 kt METAR EHKD 222132Z AUTO 29024G35KT 240V330 7000 -RA FEW012 SCT016 BKN021 06/03 Q0976 WHT
22:25
M
6 °C 9 km 1.600 ft 290° 290° 23 - 33 kt METAR EHKD 222125Z AUTO 29023G33KT 260V320 9000 -SHRA FEW013 FEW015CB BKN016 BKN019 06/03 Q0975 REDZ WHT
22:14
M
5 °C 8 km 1.700 ft 280° 280° 26 - 42 kt METAR EHKD 222114Z AUTO 28026G42KT 250V310 8000 -RA FEW014 FEW015CB BKN017 BKN021 05/03 Q0975 WHT
22:10
M
5 °C 7 km 2.700 ft 280° 280° 28 - 42 kt METAR EHKD 222110Z AUTO 28028G42KT 250V310 7000 +DZRA FEW014 FEW015CB SCT018 BKN027 05/03 Q0974 WHT
22:05
M
5 °C 8 km 2.800 ft 280° 280° 28 - 42 kt METAR EHKD 222105Z AUTO 28028G42KT 240V320 8000 DZ FEW012 FEW015CB SCT017 BKN028 05/03 Q0974 WHT
22:01
M
5 °C 7 km 1.700 ft 280° 280° 27 - 37 kt METAR EHKD 222101Z AUTO 28027G37KT 240V320 7000 DZ SCT012 FEW015CB BKN017 BKN022 05/03 Q0974 GRN
21:55
M
6 °C 7 km 2.700 ft 280° 280° 27 kt METAR EHKD 222055Z AUTO 28027KT 250V310 7000 DZ FEW014 FEW015CB SCT024 BKN027 06/03 Q0973 WHT
21:40
V
6 °C 9 km 3.300 ft 280° 280° 29 - 39 kt METAR EHKD 222040Z AUTO 28029G39KT 240V310 9000 DZ FEW011 FEW015CB SCT028 BKN033 06/04 Q0973 BLU
21:25
M
7 °C 10 km+ 1.300 ft 270° 270° 26 - 37 kt METAR EHKD 222025Z AUTO 27026G37KT 240V300 9999 SCT011 BKN013 FEW015CB OVC019 07/05 Q0972 GRN
21:19
M
7 °C 10 km+ 1.500 ft 270° 270° 28 - 42 kt METAR EHKD 222019Z AUTO 27028G42KT 240V300 9999 FEW010 SCT013 BKN015CB 07/05 Q0971 GRN
21:05
I
7 °C 10 km+ 800 ft 250° 250° 23 - 33 kt METAR EHKD 222005Z AUTO 25023G33KT 220V290 9999 SCT007 BKN008 BKN009 FEW015CB 07/06 Q0971 GRN
21:01
I
8 °C 10 km+ 600 ft 240° 240° 24 - 37 kt METAR EHKD 222001Z AUTO 24024G37KT 190V280 9999 -RA BKN006 BKN008 FEW015CB 08/06 Q0971 YLO
20:55
M
8 °C 6 km 1.600 ft 210° 210° 23 - 37 kt METAR EHKD 221955Z AUTO 21023G37KT 190V250 6000 -RA FEW006 SCT010 FEW015CB BKN016 08/07 Q0971 GRN
20:34
M
8 °C 10 km+ 1.500 ft 210° 210° 22 kt METAR EHKD 221934Z AUTO 21022KT 9999 -DZ FEW013 BKN015CB OVC019 08/07 Q0971 WHT
20:25
M
9 °C 10 km+ 2.200 ft 220° 220° 21 kt METAR EHKD 221925Z AUTO 22021KT 180V240 9999 FEW013 SCT019 BKN022 09/07 Q0971 WHT
19:55
I
9 °C 10 km+ 800 ft 210° 210° 24 kt METAR EHKD 221855Z AUTO 21024KT 9999 SCT007 BKN008 BKN010 09/08 Q0971 GRN
19:25
M
9 °C 10 km+ 1.500 ft 210° 210° 17 - 27 kt METAR EHKD 221825Z AUTO 21017G27KT 9999 FEW001 BKN015CB BKN097 09/08 Q0970 WHT
19:09
I
9 °C 4,6 km 900 ft 210° 210° 20 kt METAR EHKD 221809Z AUTO 21020KT 180V240 4600 -SHRA SCT001 BKN009 BKN015CB 09/08 Q0971 RED TEMPO 4000 SHRA SCT010 BKN015 SCT018CB
19:01
M
9 °C 6 km 1.700 ft 210° 210° 20 kt METAR EHKD 221801Z AUTO 21020KT 180V250 6000 -RA SCT001 SCT012 SCT015CB BKN017 09/08 Q0971 RED TEMPO 4000 SHRA SCT010 BKN015 SCT018CB
18:55
M
9 °C 6 km 3.100 ft 210° 210° 17 kt METAR EHKD 221755Z AUTO 21017KT 6000 -SHRA FEW000 SCT015CB BKN031 09/08 Q0970 RERA WHT TEMPO 4000 SHRA SCT010 BKN015 SCT018CB
18:39
I
11 °C 3,6 km 1.500 ft 220° 220° 19 kt METAR EHKD 221739Z AUTO 22019KT 190V250 3600 R21/P3000N +SHRA FEW003 SCT008 BKN015CB 11/10 Q0970 YLO TEMPO 4000 SHRA SCT010 BKN015 SCT018CB
18:31
M
12 °C 10 km+ 1.200 ft 180° 180° 17 - 27 kt METAR EHKD 221731Z AUTO 18017G27KT 140V200 9999 -SHRA FEW008 SCT010 BKN012 BKN015CB 12/11 Q0970 GRN TEMPO 4000 SHRA SCT010 BKN015 SCT018CB
18:25
M
12 °C 10 km+ 2.000 ft 170° 170° 20 kt METAR EHKD 221725Z AUTO 17020KT 140V200 9999 -RA FEW013 SCT015CB BKN020 12/11 Q0971 RERA REDZ WHT TEMPO 4000 SHRA SCT010 BKN015 SCT018CB
18:03
M
12 °C 10 km+ 1.500 ft 170° 170° 20 - 30 kt METAR EHKD 221703Z AUTO 17020G30KT 9999 -RA FEW011 BKN015CB BKN018 12/11 Q0971 WHT BECMG SCT008 BKN010
17:55
M
12 °C 10 km+ 1.300 ft 170° 170° 19 - 29 kt METAR EHKD 221655Z AUTO 17019G29KT 140V200 9999 FEW008 SCT011 BKN013 FEW015CB 12/11 Q0971 GRN BECMG SCT008 BKN010
17:42
M
12 °C 10 km+ 1.000 ft 170° 170° 21 kt METAR EHKD 221642Z AUTO 17021KT 140V200 9999 FEW004 SCT009 BKN010 SCT015CB 12/11 Q0972 GRN BECMG SCT008 BKN010
17:34
I
12 °C 10 km+ 500 ft 160° 160° 19 kt METAR EHKD 221634Z AUTO 16019KT 9999 -RA FEW004 BKN005 BKN008 FEW015CB 12/11 Q0972 YLO BECMG SCT008 BKN010
17:25
I
12 °C 4,5 km 600 ft 150° 150° 18 kt METAR EHKD 221625Z AUTO 15018KT 120V180 4500 RA FEW003 SCT004 BKN006 SCT015CB 12/11 Q0972 YLO TEMPO 2000 BR SCT003 BKN005
17:29
I
12 °C 4,8 km 600 ft 160° 160° 17 kt METAR EHKD 221629Z AUTO 16017KT 120V180 4800 -SHRA SCT004 BKN006 BKN009 FEW015CB 12/11 Q0972 YLO TEMPO 2000 DZRA SCT003 BKN005 RMK LVP ALPHA
17:14
I
12 °C 4,8 km 500 ft 150° 150° 15 kt METAR EHKD 221614Z AUTO 15015KT 110V180 4800 -SHRA SCT004 BKN005 BKN006 SCT015CB 12/11 Q0973 YLO TEMPO 2000 BR SCT003 BKN005 RMK LVP ALPHA
17:09
I
12 °C 9 km 500 ft 150° 150° 14 kt METAR EHKD 221609Z AUTO 15014KT 110V180 9000 -RA SCT004 BKN005 SCT015CB 12/11 Q0973 YLO TEMPO 2000 BR SCT003 BKN005 RMK LVP ALPHA
16:55
L
11 °C 4,8 km 400 ft 140° 140° 12 kt METAR EHKD 221555Z AUTO 14012KT 110V170 4800 -RA SCT003 BKN004 BKN006 FEW015CB 11/11 Q0974 RERA REDZ YLO TEMPO 3000 BR SCT005 BKN006
16:44
L
11 °C 3,3 km 300 ft 140° 140° 12 kt METAR EHKD 221544Z AUTO 14012KT 110V180 3300 R21/P3000D RA BKN003 BKN004 FEW015CB 11/11 Q0974 YLO TEMPO 3000 BR SCT005 BKN006
16:40
L
11 °C 5 km 400 ft 140° 140° 11 kt METAR EHKD 221540Z AUTO 14011KT 110V180 5000 -RA BKN004 OVC005 11/11 Q0974 YLO TEMPO 3000 BR SCT005 BKN006
16:27
I
11 °C 5 km 500 ft 150° 150° 11 kt METAR EHKD 221527Z AUTO 15011KT 110V180 5000 DZ SCT003 BKN005 OVC007 11/10 Q0975 YLO TEMPO 3000 BR SCT005 BKN006
16:25
L
11 °C 3,7 km 300 ft 150° 150° 11 kt METAR EHKD 221525Z AUTO 15011KT 110V170 3700 -RADZ BKN003 OVC004 11/10 Q0975 YLO TEMPO 3000 BR SCT005 BKN006
16:12
L
11 °C 5 km 400 ft 160° 160° 12 kt METAR EHKD 221512Z AUTO 16012KT 120V190 5000 DZ FEW003 BKN004 BKN006 11/11 Q0976 YLO TEMPO 3000 BR SCT005 BKN006
16:03
I
11 °C 4,2 km 500 ft 160° 160° 12 kt METAR EHKD 221503Z AUTO 16012KT 130V190 4200 -DZRA FEW004/// BKN005/// BKN007/// 11/11 Q0976 YLO TEMPO 3000 BR SCT005 BKN006
15:56
I
11 °C 4,8 km 600 ft 160° 160° 12 kt METAR EHKD 221456Z AUTO 16012KT 130V190 4800 BR FEW004 BKN006 BKN008 11/10 Q0977 YLO TEMPO 3000 BR SCT005 BKN006
15:24
I
11 °C 9 km 600 ft 160° 160° 13 kt METAR EHKD 221424Z AUTO 16013KT 120V200 9000 BR SCT005 BKN006 BKN008 11/10 Q0977 YLO TEMPO SCT005 BKN006
15:25
I
11 °C 10 km+ 700 ft 160° 160° 13 kt METAR EHKD 221425Z AUTO 16013KT 9999 FEW006 BKN007 BKN009 11/10 Q0978 GRN BECMG SCT007 BKN010
15:19
I
11 °C 10 km+ 700 ft 170° 170° 13 kt METAR EHKD 221419Z AUTO 17013KT 140V200 9999 FEW006 BKN007 BKN008 11/10 Q0978 GRN BECMG SCT007 BKN010
14:55
I
11 °C 10 km+ 800 ft 160° 160° 13 kt METAR EHKD 221355Z AUTO 16013KT 130V190 9999 FEW007 BKN008 OVC010 11/10 Q0979 GRN BECMG SCT007 BKN010
14:25
M
11 °C 10 km+ 1.000 ft 160° 160° 16 kt METAR EHKD 221325Z AUTO 16016KT 130V190 9999 FEW008 BKN010 OVC012 11/09 Q0980 GRN BECMG SCT007 BKN010
14:11
M
11 °C 10 km+ 1.000 ft 160° 160° 16 kt METAR EHKD 221311Z AUTO 16016KT 120V200 9999 BKN010 BKN012 OVC016 11/09 Q0980 GRN BECMG SCT007 BKN010
13:55
M
11 °C 10 km+ 1.200 ft 160° 160° 16 kt METAR EHKD 221255Z AUTO 16016KT 130V190 9999 BKN012 OVC014 11/09 Q0981 GRN TEMPO SCT014 BKN018
13:37
M
12 °C 10 km+ 1.500 ft 160° 160° 16 kt METAR EHKD 221237Z AUTO 16016KT 130V200 9999 SCT013 BKN015 OVC018 12/09 Q0982 GRN TEMPO SCT014 BKN018
13:31
M
11 °C 10 km+ 1.500 ft 170° 170° 16 kt METAR EHKD 221231Z AUTO 17016KT 130V190 9999 SCT013 BKN015 OVC022 11/09 Q0982 GRN TEMPO SCT014 BKN018
13:25
M
11 °C 10 km+ 1.500 ft 170° 170° 17 kt METAR EHKD 221225Z AUTO 17017KT 9999 FEW013 BKN015 OVC020 11/09 Q0983 WHT TEMPO SCT014 BKN018
13:14
M
11 °C 10 km+ 1.600 ft 170° 170° 18 kt METAR EHKD 221214Z AUTO 17018KT 140V200 9999 SCT014 OVC016 11/09 Q0983 GRN TEMPO SCT014 BKN018
13:11
M
11 °C 10 km+ 1.600 ft 170° 170° 17 kt METAR EHKD 221211Z AUTO 17017KT 140V200 9999 SCT014 BKN016 BKN047 11/09 Q0983 GRN TEMPO SCT007
13:03
V
11 °C 10 km+ 9.800 ft 160° 160° 15 kt METAR EHKD 221203Z AUTO 16015KT 130V200 9999 FEW013 SCT016 BKN098 11/09 Q0984 WHT TEMPO SCT007
12:57
V
12 °C 10 km+ 9.300 ft 170° 170° 15 kt METAR EHKD 221157Z AUTO 17015KT 130V190 9999 FEW012 BKN093 OVC098 12/09 Q0984 BLU TEMPO SCT007
12:35
V
11 °C 10 km+ 9.200 ft 170° 170° 15 kt METAR EHKD 221135Z AUTO 17015KT 9999 BKN092 OVC099 11/09 Q0985 BLU TEMPO SCT007
12:25
V
11 °C 10 km+ 9.200 ft 170° 170° 16 kt METAR EHKD 221125Z AUTO 17016KT 9999 FEW011 OVC092 11/08 Q0985 BLU TEMPO SCT005 BKN008
11:55
V
10 °C 10 km+ 9.000 ft 180° 180° 15 kt METAR EHKD 221055Z AUTO 18015KT 140V200 9999 FEW011 BKN090 OVC096 10/08 Q0986 BLU TEMPO SCT005 BKN008
11:25
M
10 °C 10 km+ 1.000 ft 170° 170° 13 kt METAR EHKD 221025Z AUTO 17013KT 140V210 9999 FEW009 BKN010 OVC014 10/08 Q0987 GRN TEMPO SCT005 BKN008
10:55
M
10 °C 10 km+ 1.400 ft 190° 190° 16 kt METAR EHKD 220955Z AUTO 19016KT 9999 FEW011 OVC014 10/08 Q0987 GRN TEMPO SCT005 BKN008
10:25
M
10 °C 10 km+ 1.400 ft 190° 190° 17 kt METAR EHKD 220925Z AUTO 19017KT 9999 FEW009 SCT012 BKN014 10/08 Q0988 GRN TEMPO SCT005 BKN008
10:18
M
10 °C 10 km+ 1.500 ft 200° 200° 16 kt METAR EHKD 220918Z AUTO 20016KT 9999 FEW008 OVC015 10/08 Q0989 WHT TEMPO SCT005 BKN008
09:55
L
9 °C 6 km 400 ft 200° 200° 15 kt METAR EHKD 220855Z AUTO 20015KT 6000 BR BKN004 BKN005 BKN190 09/08 Q0989 YLO TEMPO SCT005 BKN008
09:42
M
9 °C 7 km 1.700 ft 200° 200° 13 kt METAR EHKD 220842Z AUTO 20013KT 7000 BR SCT014 BKN017 09/08 Q0989 GRN TEMPO SCT005 BKN008
09:25
M
9 °C 7 km 1.700 ft 200° 200° 12 kt METAR EHKD 220825Z AUTO 20012KT 7000 BR FEW011 BKN017 OVC020 09/08 Q0990 WHT TEMPO SCT005 BKN008
09:13
M
9 °C 7 km 20.000 ft 200° 200° 13 kt METAR EHKD 220813Z AUTO 20013KT 170V230 7000 BR FEW012 SCT023 BKN200 09/08 Q0990 WHT TEMPO SCT005 BKN008
09:06
M
9 °C 7 km 1.100 ft 200° 200° 14 kt METAR EHKD 220806Z AUTO 20014KT 7000 BR FEW004 SCT007 BKN011 09/08 Q0990 GRN TEMPO SCT005 BKN008
08:55
M
9 °C 8 km 1.200 ft 200° 200° 14 kt METAR EHKD 220755Z AUTO 20014KT 8000 BR FEW005 SCT008 BKN012 09/08 Q0990 GRN TEMPO SCT010
08:41
M
9 °C 10 km+ 1.500 ft 200° 200° 12 kt METAR EHKD 220741Z AUTO 20012KT 9999 SCT013 BKN015 OVC019 09/08 Q0991 GRN TEMPO SCT010
08:25
M
9 °C 10 km+ 1.600 ft 200° 200° 9 kt METAR EHKD 220725Z AUTO 20009KT 9999 SCT011 BKN016 BKN022 09/07 Q0991 GRN TEMPO SCT005
07:55
V
8 °C 8 km 3.100 ft 210° 210° 10 kt METAR EHKD 220655Z AUTO 21010KT 8000 BR FEW027 BKN031 BKN210 08/07 Q0991 BLU TEMPO SCT005
07:25
M
9 °C 10 km+ 2.600 ft 220° 220° 13 kt METAR EHKD 220625Z AUTO 22013KT 190V250 9999 OVC026 09/08 Q0992 BLU TEMPO SCT005
07:15
M
9 °C 10 km+ 2.500 ft 220° 220° 13 kt METAR EHKD 220615Z AUTO 22013KT 9999 OVC025 09/08 Q0992 BLU TEMPO SCT005
07:10
M
9 °C 10 km+ 2.300 ft 220° 220° 13 kt METAR EHKD 220610Z AUTO 22013KT 190V250 9999 OVC023 09/08 Q0992 WHT TEMPO SCT004
06:57
M
9 °C 9 km 2.200 ft 220° 220° 12 kt METAR EHKD 220557Z AUTO 22012KT 180V250 9000 BR BKN022 BKN026 BKN032 09/08 Q0992 WHT TEMPO SCT004
06:44
M
9 °C 7 km 2.500 ft 220° 220° 13 kt METAR EHKD 220544Z AUTO 22013KT 7000 BR SCT003 SCT018 BKN025 09/08 Q0992 YLO TEMPO SCT004
06:25
M
9 °C 9 km 2.000 ft 210° 210° 13 kt METAR EHKD 220525Z AUTO 21013KT 180V240 9000 BR SCT003 OVC020 09/08 Q0992 YLO
06:09
M
8 °C 10 km+ 1.800 ft 210° 210° 11 kt METAR EHKD 220509Z AUTO 21011KT 180V240 9999 BKN018 BKN023 BKN027 08/08 Q0992 WHT
06:05
M
8 °C 10 km+ 2.600 ft 210° 210° 12 kt METAR EHKD 220505Z AUTO 21012KT 9999 FEW018 SCT023 BKN026 08/07 Q0992 WHT
06:01
M
9 °C 10 km+ 2.500 ft 210° 210° 11 kt METAR EHKD 220501Z AUTO 21011KT 9999 FEW021 BKN025 BKN034 09/08 Q0992 BLU
05:55
M
9 °C 10 km+ 1.700 ft 210° 210° 11 kt METAR EHKD 220455Z AUTO 21011KT 9999 BKN017 OVC021 09/08 Q0993 WHT
05:25
M
9 °C 10 km+ 1.900 ft 220° 220° 10 kt METAR EHKD 220425Z AUTO 22010KT 9999 FEW012 OVC019 09/08 Q0993 WHT
05:05
M
9 °C 10 km+ 1.500 ft 220° 220° 10 kt METAR EHKD 220405Z AUTO 22010KT 190V270 9999 BKN015 OVC018 09/08 Q0993 WHT
04:55
M
9 °C 10 km+ 1.300 ft 220° 220° 10 kt METAR EHKD 220355Z AUTO 22010KT 190V250 9999 SCT011 BKN013 OVC016 09/08 Q0993 GRN
04:40
M
9 °C 10 km+ 1.600 ft 220° 220° 11 kt METAR EHKD 220340Z AUTO 22011KT 190V250 9999 FEW006 SCT008 OVC016 09/08 Q0994 GRN
04:35
I
9 °C 10 km+ 600 ft 220° 220° 11 kt METAR EHKD 220335Z AUTO 22011KT 9999 BKN006 BKN008 OVC015 09/08 Q0994 YLO
04:27
M
9 °C 10 km+ 2.000 ft 230° 230° 11 kt METAR EHKD 220327Z AUTO 23011KT 200V260 9999 FEW006 SCT014 OVC020 09/09 Q0994 GRN
04:25
M
9 °C 10 km+ 2.000 ft 230° 230° 11 kt METAR EHKD 220325Z AUTO 23011KT 9999 FEW006 OVC020 09/09 Q0994 WHT
04:16
M
9 °C 10 km+ 2.100 ft 230° 230° 9 kt METAR EHKD 220316Z AUTO 23009KT 9999 FEW006 BKN021 OVC050 09/09 Q0994 WHT
04:01
V
9 °C 10 km+ 4.900 ft 230° 230° 10 kt METAR EHKD 220301Z AUTO 23010KT 200V260 9999 FEW005 SCT038 OVC049 09/09 Q0994 BLU
03:57
M
9 °C 10 km+ 1.900 ft 230° 230° 10 kt METAR EHKD 220257Z AUTO 23010KT 200V260 9999 FEW005 SCT016 BKN019 09/09 Q0994 WHT
03:27
I
9 °C 9 km 600 ft 240° 240° 10 kt METAR EHKD 220227Z AUTO 24010KT 9000 BR SCT004 BKN006 BKN007 09/09 Q0994 YLO
03:25
I
9 °C 10 km+ 900 ft 240° 240° 10 kt METAR EHKD 220225Z AUTO 24010KT 9999 SCT004 SCT007 BKN009 09/09 Q0994 YLO
03:10
I
9 °C 9 km 800 ft 230° 230° 11 kt METAR EHKD 220210Z AUTO 23011KT 9000 BR FEW003 SCT007 BKN008 09/09 Q0995 GRN
02:55
L
9 °C 8 km 300 ft 240° 240° 10 kt METAR EHKD 220155Z AUTO 24010KT 8000 BR OVC003 09/09 Q0995 YLO
02:40
L
9 °C 8 km 300 ft 240° 240° 10 kt METAR EHKD 220140Z AUTO 24010KT 8000 BR OVC003 09/09 Q0995 YLO
02:25
L
9 °C 7 km 300 ft 240° 240° 11 kt METAR EHKD 220125Z AUTO 24011KT 200V260 7000 BR OVC003 09/09 Q0995 YLO
01:55
L
10 °C 7 km 300 ft 240° 240° 12 kt METAR EHKD 220055Z AUTO 24012KT 7000 BR OVC003 10/09 Q0995 YLO
00:25
L
9 °C 8 km 300 ft 230° 230° 11 kt METAR EHKD 212325Z AUTO 23011KT 190V270 8000 BR BKN003 OVC004 09/09 Q0996 YLO
00:16
I
9 °C 8 km 500 ft 230° 230° 12 kt METAR EHKD 212316Z AUTO 23012KT 190V260 8000 BR SCT003 OVC005 09/09 Q0996 YLO
00:07
L
9 °C 5 km 200 ft 220° 220° 12 kt METAR EHKD 212307Z AUTO 22012KT 190V250 5000 BR BKN002 OVC003 09/09 Q0996 AMB

21. Februar 2024

Uhrzeit Code Wetter Temp. Sichtweite Wolkendecke Wind METAR/SPECI
23:55
L
9 °C 4,2 km 200 ft 220° 220° 14 kt METAR EHKD 212255Z AUTO 22014KT 190V250 4200 BR OVC002 09/09 Q0996 REDZ AMB
23:25
L
9 °C 3,1 km 200 ft 220° 220° 15 kt METAR EHKD 212225Z AUTO 22015KT 190V260 3100 DZ OVC002 09/08 Q0996 AMB
23:13
L
9 °C 2,9 km 200 ft 220° 220° 16 kt METAR EHKD 212213Z AUTO 22016KT 190V250 2900 DZRA OVC002 09/08 Q0996 AMB
23:06
L
9 °C 2,7 km 200 ft 220° 220° 16 kt METAR EHKD 212206Z AUTO 22016KT 190V250 2700 -RA OVC002 09/08 Q0996 AMB
23:02
L
9 °C 2,8 km 300 ft 220° 220° 17 kt METAR EHKD 212202Z AUTO 22017KT 2800 -RA OVC003 09/08 Q0996 YLO
22:58
L
9 °C 2,8 km 200 ft 220° 220° 17 kt METAR EHKD 212158Z AUTO 22017KT 190V250 2800 DZRA OVC002 09/08 Q0996 AMB
22:25
L
9 °C 3,1 km 300 ft 220° 220° 17 kt METAR EHKD 212125Z AUTO 22017KT 190V250 3100 DZ OVC003 09/08 Q0996 YLO
22:07
L
9 °C 3 km 300 ft 220° 220° 17 - 27 kt METAR EHKD 212107Z AUTO 22017G27KT 180V250 3000 DZ OVC003 09/08 Q0997 YLO
21:58
L
9 °C 3 km 300 ft 210° 210° 20 - 30 kt METAR EHKD 212058Z AUTO 21020G30KT 180V250 3000 DZRA BKN003 OVC004 09/08 Q0997 YLO
21:43
L
9 °C 3 km 300 ft 210° 210° 21 kt METAR EHKD 212043Z AUTO 21021KT 180V260 3000 DZRA OVC003 09/08 Q0997 YLO
21:25
L
9 °C 3,4 km 400 ft 210° 210° 23 kt METAR EHKD 212025Z AUTO 21023KT 3400 -RA BKN004 OVC005 09/08 Q0997 YLO
20:55
I
9 °C 3,2 km 500 ft 210° 210° 23 - 33 kt METAR EHKD 211955Z AUTO 21023G33KT 3200 -RA SCT004 OVC005 09/08 Q0998 YLO
20:25
I
9 °C 3,4 km 600 ft 200° 200° 24 - 34 kt METAR EHKD 211925Z AUTO 20024G34KT 3400 -RA SCT005 BKN006 OVC008 09/08 Q0998 YLO
20:11
I
9 °C 2,9 km 600 ft 200° 200° 25 kt METAR EHKD 211911Z AUTO 20025KT 2900 R21/P3000N -RA FEW005 BKN006 BKN007 09/08 Q0998 YLO TEMPO 20025G35KT 3000 -DZRA SCT006 BKN010
19:55
I
9 °C 3,4 km 900 ft 200° 200° 24 kt METAR EHKD 211855Z AUTO 20024KT 3400 R21/P3000N -RA FEW007 SCT008 BKN009 09/08 Q0998 YLO TEMPO 20025G35KT 3000 -DZRA SCT006 BKN010
19:35
I
9 °C 4,8 km 1.000 ft 200° 200° 24 kt METAR EHKD 211835Z AUTO 20024KT 4800 -RA FEW008 SCT009 BKN010 FEW015CB 09/08 Q0999 GRN TEMPO 20025G35KT 4000 -DZRA SCT006 BKN010
19:31
I
9 °C 4,3 km 1.000 ft 200° 200° 24 - 36 kt METAR EHKD 211831Z AUTO 20024G36KT 4300 -RA FEW008 BKN010 BKN015CB 09/08 Q0999 GRN TEMPO 20025G35KT 4500 -DZRA SCT006 BKN010
19:25
M
9 °C 5 km 1.500 ft 190° 190° 25 - 36 kt METAR EHKD 211825Z AUTO 19025G36KT 160V220 5000 -RA FEW010 SCT013 BKN015CB 09/08 Q0999 GRN TEMPO 20025G35KT 4500 -DZRA SCT006 BKN010
19:20
M
10 °C 5 km 1.500 ft 190° 190° 25 - 36 kt METAR EHKD 211820Z AUTO 19025G36KT 160V220 5000 -RA FEW010 SCT013 BKN015CB 10/08 Q0999 GRN TEMPO 20025G35KT 4500 -DZRA SCT006 BKN010
19:11
M
9 °C 10 km+ 1.200 ft 190° 190° 25 kt METAR EHKD 211811Z AUTO 19025KT 9999 -RA SCT010 BKN012 FEW015CB OVC016 09/08 Q0999 GRN TEMPO 20020G30KT 4500 -DZRA SCT006 BKN010
19:07
M
9 °C 10 km+ 1.500 ft 190° 190° 23 - 34 kt METAR EHKD 211807Z AUTO 19023G34KT 9999 -RA FEW010 SCT012 BKN015CB 09/08 Q0999 GRN TEMPO 20020G30KT 4500 -DZRA SCT006 BKN010
19:03
M
9 °C 10 km+ 1.500 ft 190° 190° 23 - 36 kt METAR EHKD 211803Z AUTO 19023G36KT 9999 -RA FEW009 SCT012 BKN015CB 09/08 Q0999 GRN TEMPO 20020G30KT 4500 -DZRA SCT006 BKN010
18:55
M
9 °C 5 km 1.400 ft 190° 190° 22 kt METAR EHKD 211755Z AUTO 19022KT 160V220 5000 -RA FEW009 SCT010 BKN014 FEW015CB 09/08 Q0999 GRN TEMPO 20020G30KT 4500 -DZRA SCT006 BKN010
18:41
M
9 °C 9 km 1.000 ft 190° 190° 19 kt METAR EHKD 211741Z AUTO 19019KT 160V220 9000 -SHRA FEW009 BKN010 BKN012 SCT015CB 09/08 Q1000 GRN TEMPO 20020G30KT 4500 -DZRA SCT006 BKN010
18:34
M
9 °C 9 km 1.000 ft 190° 190° 19 kt METAR EHKD 211734Z AUTO 19019KT 160V220 9000 -UP FEW006 SCT009 BKN010 SCT015CB 09/08 Q1000 GRN TEMPO 20020G30KT 4500 -DZRA SCT006 BKN010
18:25
M
9 °C 7 km 1.100 ft 180° 180° 19 kt METAR EHKD 211725Z AUTO 18019KT 150V210 7000 -SHRA FEW008 SCT009 BKN011 SCT015CB 09/08 Q1000 GRN TEMPO 20020G30KT 4500 -DZRA SCT006 BKN010
18:18
M
9 °C 9 km 1.000 ft 180° 180° 20 kt METAR EHKD 211718Z AUTO 18020KT 150V210 9000 -RA FEW008 BKN010 BKN012 SCT015CB 09/08 Q1000 GRN TEMPO 20020G30KT 4500 -DZRA SCT006 BKN010
17:55
M
9 °C 7 km 1.300 ft 180° 180° 20 kt METAR EHKD 211655Z AUTO 18020KT 7000 -RA FEW008 SCT011 BKN013 BKN015CB 09/07 Q1001 GRN TEMPO 20020G30KT 4500 -DZRA SCT006 BKN010
17:43
M
9 °C 5 km 1.500 ft 180° 180° 20 kt METAR EHKD 211643Z AUTO 18020KT 5000 -SHUP FEW008 SCT012 BKN015CB 09/07 Q1001 GRN TEMPO 20020G30KT 4500 -DZRA SCT006 BKN010
17:33
M
9 °C 6 km 1.500 ft 180° 180° 20 kt METAR EHKD 211633Z AUTO 18020KT 150V210 6000 -RA SCT011 BKN015CB OVC019 09/07 Q1001 GRN TEMPO 20020G30KT 4500 -DZRA SCT006 BKN010
17:25
M
9 °C 9 km 1.400 ft 180° 180° 20 kt METAR EHKD 211625Z AUTO 18020KT 9000 -SHRA FEW010 BKN014 SCT015CB OVC016 09/07 Q1001 REDZ GRN TEMPO 20020G30KT 4500 -DZRA SCT006 BKN010
17:13
M
9 °C 10 km+ 1.400 ft 180° 180° 21 kt METAR EHKD 211613Z AUTO 18021KT 9999 -RA FEW010 BKN014 SCT015CB OVC016 09/07 Q1002 GRN TEMPO 20020G30KT 4500 -DZRA SCT006 BKN010
16:59
M
9 °C 10 km+ 1.400 ft 180° 180° 17 kt METAR EHKD 211559Z AUTO 18017KT 150V210 9999 DZRA FEW009 SCT011 BKN014 FEW015CB 09/07 Q1002 GRN TEMPO 20020G30KT 4500 -DZRA SCT006 BKN010
16:41
M
9 °C 9 km 1.300 ft 180° 180° 21 kt METAR EHKD 211541Z AUTO 18021KT 9000 -RA FEW010 BKN013 FEW015CB OVC016 09/07 Q1002 GRN TEMPO 20020G30KT 4500 -DZRA SCT006 BKN010
16:33
M
9 °C 6 km 1.600 ft 180° 180° 21 kt METAR EHKD 211533Z AUTO 18021KT 6000 -RA FEW012 FEW015CB OVC016 09/07 Q1003 WHT TEMPO 20020G30KT 4500 -DZRA SCT006 BKN010
16:25
M
9 °C 10 km+ 1.500 ft 180° 180° 20 kt METAR EHKD 211525Z AUTO 18020KT 9999 -RA FEW012 BKN015CB OVC018 09/07 Q1003 RERA REDZ WHT TEMPO 20020G30KT 4500 -DZRA SCT006 BKN010
15:55
M
9 °C 10 km+ 2.000 ft 180° 180° 18 kt METAR EHKD 211455Z AUTO 18018KT 9999 -RA SCT017 BKN020 BKN024 09/07 Q1004 RERA REDZ WHT TEMPO 20020G30KT 4500 -DZRA SCT006 BKN010
15:37
M
10 °C 10 km+ 1.800 ft 190° 190° 19 kt METAR EHKD 211437Z AUTO 19019KT 9999 -DZ BKN018 BKN022 BKN042 10/07 Q1004 WHT TEMPO 20020G30KT 4500 -DZRA SCT006 BKN010
15:28
M
10 °C 10 km+ 2.400 ft 190° 190° 22 kt METAR EHKD 211428Z AUTO 19022KT 160V220 9999 -DZRA FEW019 BKN024 BKN047 10/06 Q1005 WHT TEMPO 20020G30KT 4500 -DZRA SCT006 BKN010
15:25
M
10 °C 10 km+ 2.400 ft 190° 190° 21 - 31 kt METAR EHKD 211425Z AUTO 19021G31KT 160V220 9999 -RA FEW019 BKN024 OVC057 10/06 Q1005 WHT TEMPO 20020G30KT 4500 -DZRA SCT006 BKN010
15:15
M
10 °C 10 km+ 2.500 ft 190° 190° 21 kt METAR EHKD 211415Z AUTO 19021KT 9999 FEW021 BKN025 OVC029 10/06 Q1005 BLU TEMPO 20020G30KT 4500 -DZRA SCT006 BKN010
15:10
M
10 °C 10 km+ 2.600 ft 190° 190° 23 kt METAR EHKD 211410Z AUTO 19023KT 9999 FEW019 SCT022 BKN026 10/06 Q1005 WHT TEMPO 20020G30KT 4500 -DZRA SCT006 BKN010
14:55
M
10 °C 10 km+ 2.600 ft 190° 190° 23 - 33 kt METAR EHKD 211355Z AUTO 19023G33KT 9999 FEW019 SCT023 OVC026 10/06 Q1006 WHT TEMPO 20020G30KT 4500 -DZRA SCT006 BKN010
14:41
M
10 °C 10 km+ 2.600 ft 190° 190° 22 kt METAR EHKD 211341Z AUTO 19022KT 9999 FEW022 BKN026 BKN029 10/06 Q1006 BLU TEMPO 20020G30KT 4500 -DZRA SCT006 BKN010
14:25
M
10 °C 10 km+ 2.200 ft 200° 200° 21 kt METAR EHKD 211325Z AUTO 20021KT 170V230 9999 FEW019 OVC022 10/06 Q1007 WHT NOSIG
13:55
M
10 °C 10 km+ 1.700 ft 190° 190° 22 kt METAR EHKD 211255Z AUTO 19022KT 9999 BKN017 OVC020 10/06 Q1008 WHT NOSIG
13:25
M
10 °C 10 km+ 1.800 ft 200° 200° 19 kt METAR EHKD 211225Z AUTO 20019KT 9999 SCT015 BKN018 OVC021 10/07 Q1009 WHT NOSIG
12:55
M
9 °C 10 km+ 1.900 ft 200° 200° 19 kt METAR EHKD 211155Z AUTO 20019KT 9999 -DZ SCT016 BKN019 OVC023 09/07 Q1010 WHT NOSIG
12:43
M
9 °C 10 km+ 2.200 ft 200° 200° 17 kt METAR EHKD 211143Z AUTO 20017KT 9999 DZRA FEW016 OVC022 09/06 Q1010 WHT NOSIG
12:37
M
9 °C 10 km+ 2.200 ft 200° 200° 18 kt METAR EHKD 211137Z AUTO 20018KT 9999 FEW017 BKN022 BKN051 09/06 Q1010 WHT NOSIG
12:25
V
10 °C 10 km+ 6.200 ft 200° 200° 20 kt METAR EHKD 211125Z AUTO 20020KT 170V230 9999 FEW016 SCT055 BKN062 10/06 Q1011 BLU NOSIG
12:08
V
10 °C 10 km+ - 200° 200° 19 kt METAR EHKD 211108Z AUTO 20019KT 9999 FEW014 SCT059 10/07 Q1011 BLU NOSIG
12:04
V
10 °C 10 km+ 6.200 ft 190° 190° 19 kt METAR EHKD 211104Z AUTO 19019KT 9999 FEW013 SCT016 BKN062 10/07 Q1011 WHT NOSIG
11:55
M
10 °C 10 km+ 1.200 ft 200° 200° 19 kt METAR EHKD 211055Z AUTO 20019KT 9999 BKN012 BKN019 BKN083 10/07 Q1011 GRN NOSIG
11:25
M
9 °C 10 km+ 1.100 ft 200° 200° 19 kt METAR EHKD 211025Z AUTO 20019KT 9999 BKN011 BKN016 BKN130 09/07 Q1012 GRN NOSIG
10:56
M
9 °C 10 km+ 1.400 ft 200° 200° 19 kt METAR EHKD 210956Z AUTO 20019KT 170V230 9999 FEW008 SCT009 BKN014 09/07 Q1012 GRN TEMPO SCT007 BKN010
10:55
M
9 °C 10 km+ 1.000 ft 200° 200° 19 kt METAR EHKD 210955Z AUTO 20019KT 9999 SCT008 BKN010 OVC014 09/07 Q1012 GRN TEMPO SCT007 BKN010
10:25
M
9 °C 10 km+ 1.300 ft 210° 210° 18 kt METAR EHKD 210925Z AUTO 21018KT 9999 FEW007 OVC013 09/07 Q1013 GRN TEMPO SCT007 BKN010
10:16
M
9 °C 10 km+ 1.300 ft 210° 210° 19 kt METAR EHKD 210916Z AUTO 21019KT 9999 FEW007 SCT009 OVC013 09/07 Q1013 GRN TEMPO SCT007 BKN010
10:13
M
9 °C 10 km+ 1.300 ft 210° 210° 19 kt METAR EHKD 210913Z AUTO 21019KT 9999 FEW007 SCT008 BKN013 09/07 Q1013 GRN TEMPO SCT007 BKN010
09:59
M
9 °C 10 km+ 2.700 ft 210° 210° 18 kt METAR EHKD 210859Z AUTO 21018KT 9999 FEW007 SCT012 BKN027 09/07 Q1013 GRN TEMPO SCT007 BKN010
09:55
M
9 °C 10 km+ 1.100 ft 210° 210° 18 kt METAR EHKD 210855Z AUTO 21018KT 170V240 9999 FEW006 BKN011 OVC013 09/07 Q1013 GRN TEMPO SCT007 BKN010
09:27
M
9 °C 10 km+ 1.000 ft 210° 210° 17 kt METAR EHKD 210827Z AUTO 21017KT 9999 FEW006 BKN010 BKN021 09/07 Q1014 GRN TEMPO SCT007 BKN010
09:25
M
9 °C 10 km+ 2.000 ft 210° 210° 17 kt METAR EHKD 210825Z AUTO 21017KT 9999 FEW006 SCT011 BKN020 09/07 Q1014 GRN TEMPO SCT007 BKN010
09:05
M
9 °C 10 km+ 2.000 ft 210° 210° 16 kt METAR EHKD 210805Z AUTO 21016KT 9999 SCT011 OVC020 09/08 Q1014 GRN TEMPO SCT007 BKN010
08:55
M
9 °C 10 km+ 1.700 ft 210° 210° 16 kt METAR EHKD 210755Z AUTO 21016KT 190V250 9999 FEW006 OVC017 09/07 Q1014 WHT TEMPO SCT003 BKN008
08:41
M
9 °C 9 km 1.500 ft 210° 210° 16 kt METAR EHKD 210741Z AUTO 21016KT 9000 BR FEW005 OVC015 09/07 Q1014 WHT TEMPO SCT003 BKN008
08:25
I
8 °C 9 km 600 ft 210° 210° 14 kt METAR EHKD 210725Z AUTO 21014KT 9000 BR SCT005 BKN006 BKN011 08/07 Q1015 YLO TEMPO SCT003 BKN008
08:15
I
8 °C 9 km 900 ft 200° 200° 13 kt METAR EHKD 210715Z AUTO 20013KT 170V230 9000 BR FEW005 SCT006 BKN009 08/07 Q1015 YLO TEMPO SCT003 BKN008
07:55
I
9 °C 9 km 900 ft 210° 210° 12 kt METAR EHKD 210655Z AUTO 21012KT 9000 BR FEW007 SCT008 BKN009 09/08 Q1015 GRN TEMPO SCT003 BKN008
07:37
I
9 °C 8 km 900 ft 210° 210° 12 kt METAR EHKD 210637Z AUTO 21012KT 180V240 8000 BR FEW005 SCT008 BKN009 09/08 Q1015 GRN TEMPO SCT003 BKN008
07:25
I
9 °C 9 km 800 ft 210° 210° 11 kt METAR EHKD 210625Z AUTO 21011KT 190V250 9000 BR FEW004 SCT007 BKN008 09/08 Q1015 GRN TEMPO SCT003 BKN008
07:17
I
8 °C 9 km 900 ft 210° 210° 10 kt METAR EHKD 210617Z AUTO 21010KT 190V250 9000 BR FEW004 SCT007 BKN009 08/08 Q1015 GRN TEMPO SCT003 BKN008
07:13
I
8 °C 9 km 700 ft 210° 210° 9 kt METAR EHKD 210613Z AUTO 21009KT 190V250 9000 BR FEW004 BKN007 OVC008 08/08 Q1015 GRN TEMPO SCT003 BKN008
07:06
I
8 °C 9 km 700 ft 220° 220° 10 kt METAR EHKD 210606Z AUTO 22010KT 170V250 9000 BR SCT003 SCT005 OVC007 08/08 Q1015 YLO TEMPO SCT003 BKN008
06:55
L
8 °C 8 km 400 ft 210° 210° 12 kt METAR EHKD 210555Z AUTO 21012KT 180V240 8000 BR OVC004 08/08 Q1015 YLO TEMPO SCT003 BKN008